カタログに戻る

FENGYUN 1C DEB

運用中SSO
NORAD 37003·DEBRIS·🇨🇳 China

打ち上げ May 10, 1999 から Taiyuan Satellite Launch Center

Loading…

次のパス (今後24時間)

TLE

最新Source: Space-Track

元期: Sep 13, 2026, 06:58 UTC

1 37003U 99025ECK 26256.29080749  .00000470  00000-0  35474-3 0  9995
2 37003  98.8297 274.0672 0097088 124.2899 249.7902 13.96661158644893

AllMySatでFENGYUN 1C DEBをリアルタイム追跡

Download on the App Store